Flag for Spain Weather past 2 weeks in Santa Cruz de Tenerife, Canary Islands, Spain

Now
72 °F

Partly sunny.


Feels Like: 75 °F
Forecast: 73 / 77 °F
Wind: 2 mph from North

Location: Tenerife / Los Rodeos

Current Time: Sep 21, 2014 at 1:28:42 PM

Latest Report: Sep 21, 2014 at 12:30 PM


Visibility: N/A

Pressure: 30.12 "Hg

Humidity: 69%

Dew point: 61 °F

Location of Santa Cruz de TenerifeLocation

Historic Weather in Santa Cruz de Tenerife — Graph

°F

Santa Cruz de Tenerife temperature yesterday

Maximum temperature yesterday: 72 °F (at 2:30 PM)
Minimum temperature yesterday: 61 °F (at 6:00 AM)
Average temperature yesterday: 66 °F

Past Weeks' High & Low Weather Summary

 TemperatureHumidityPressure
High79 °F (Sep 6, 2:30 PM)100% (Sep 6, 8:30 PM)30.21 "Hg (Sep 6, 8:30 PM)
Low59 °F (Sep 21, 6:30 AM)50% (Sep 13, 6:00 PM)29.95 "Hg (Sep 16, 6:00 AM)
Average70 °F80%30.08 "Hg
* Reported Sep 6 12:00 Noon — Sep 21 12:30 PM, Santa Cruz de Tenerife, Weather by CustomWeather, © 2014

Note: Actual official high and low records may vary slightly from our data, if they occured in-between our weather recording intervals... More about our weather records

Advertising

Santa Cruz de Tenerife weather history for previous 24 hours

 ConditionsComfort  
Time TempWeatherWind HumidityBarometerVisibility
12:30 PM
Sep 21
72 °FPartly sunny.2 mph69%30.12 "HgN/A
12:00 PM70 °FScattered clouds.2 mph73%30.12 "HgN/A
11:30 AM70 °FPartly sunny.6 mph73%30.12 "HgN/A
11:00 AM68 °FScattered clouds.3 mph78%30.12 "HgN/A
10:30 AM68 °FScattered clouds.3 mph78%30.12 "HgN/A
10:00 AM66 °FScattered clouds.1 mph73%30.09 "HgN/A
9:30 AM66 °FPassing clouds.1 mph78%30.09 "HgN/A
9:00 AM64 °FPassing clouds.No wind78%30.09 "HgN/A
8:30 AM61 °FPassing clouds.2 mph88%30.07 "HgN/A
8:00 AM59 °FPassing clouds.1 mph94%30.07 "HgN/A
7:30 AM59 °FPassing clouds.No wind94%30.07 "HgN/A
7:00 AM61 °FPassing clouds.3 mph88%30.07 "HgN/A
6:30 AM59 °FClear.1 mph82%30.07 "Hg10 mi
6:00 AM61 °FPassing clouds.5 mph72%30.04 "HgN/A
11:00 PM
Sep 20
66 °FPassing clouds.2 mph88%30.09 "HgN/A
10:30 PM66 °FPassing clouds.1 mph88%30.09 "HgN/A
10:00 PM66 °FPassing clouds.2 mph88%30.07 "HgN/A
9:30 PM66 °FPassing clouds.2 mph88%30.07 "HgN/A
9:00 PM66 °FScattered clouds.No wind83%30.07 "HgN/A
8:30 PM66 °FScattered clouds.1 mph83%30.07 "HgN/A
8:00 PM66 °FScattered clouds.3 mph83%30.07 "HgN/A
7:30 PM68 °FScattered clouds.7 mph78%30.04 "HgN/A
7:00 PM70 °FScattered clouds.1 mph73%30.04 "HgN/A
6:30 PM72 °FScattered clouds.2 mph73%30.04 "HgN/A
2:30 PM72 °FPartly sunny.8 mph73%30.07 "HgN/A
2:00 PM70 °FScattered clouds.9 mph73%30.09 "HgN/A
1:30 PM70 °FPartly sunny.7 mph73%30.09 "HgN/A
1:00 PM70 °FPartly sunny.7 mph73%30.09 "HgN/A
Weather by CustomWeather, © 2014

See weather overviewHow to use our weather pages